sat.trackr.live / text

‹ back to catalog

STARLINK-35237

NORAD 65645 · 2025-210Z

PAYLOAD ACTIVE UNKNOWN

§ Identity

Operator
Country
US
Launch date
2025-09-18
Launch site
AFETR
Launch vehicle
Mass (kg)
RCS (m²)

Purposes: comms

External: N2YO · Heavens-Above · Gunter

§ Orbital elements

Epoch: 2026-09-20T00:44:01.840704Z

Period
93.85 min
Inclination
53.1574°
Eccentricity
0.0000995
Mean motion
15.34412565 rev/d
Perigee alt
462.0 km
Apogee alt
463.3 km
Semi-major
6,840.8 km
B*
4.4475e-4
RAAN
123.8103°
Arg perigee
115.9849°
Mean anomaly
244.1256°
Rev number
5,749

§ Raw data

STARLINK-352371 65645U 25210Z   26263.03057686  .00014686  00000+0  44475-3 0  99912 65645  53.1574 123.8103 0000995 115.9849 244.1256 15.34412565 57496

JSON: /api/v1/satellites/65645 · /tle

For live sub-satellite position, see the globe view (requires WebGL).

§ Visibility from observer

Set your observer location to see the next 7 days of passes ≥ 10°. The values pass through the URL so the page stays shareable.

No JS? Fill the form by hand. The geolocation button needs JavaScript.